Weather in Sandviken

Sweden     60°37′20″N   16°45′24″E
temp.,
°C
wind,
m/s
gust,
m/s
humid.,
%
clouds,
%
prec.,
mm/h
press.,
hPa
HPBL,
m
18 april, sun
sun1823:00+2nne267312 0.0 1032123
02:00+2n27745 0.0 1032134
05:00+1n287731 0.0 1031147
08:00+5nne366433 0.0 1031229
11:00+11ne35495 0.0 1031591
14:00+12ene45405 0.0 1031809
17:00+11ene34422 0.0 1030657
20:00+6ne24690 0.0 103193
19 april, mon
mon1923:00+3ene11800 0.0 103110
02:00+2nnw11835 0.0 103110
05:00+2n11835 0.0 103110
08:00+6ne01621 0.0 1031125
11:00+12ese12440 0.0 1030737
14:00+15ese22361 0.0 10291399
17:00+15e23370 0.0 10271345
20:00+9ese25610 0.0 1027113
20 april, tue
tue2023:00+5sse22780 0.0 102732
02:00+4s22860 0.0 102619
05:00+3s118857 0.0 102511
08:00+7sse136780 0.0 1024225
11:00+11sse2341100 0.0 1022887
14:00+14sse233571 0.0 10191574
17:00+14s2335100 0.0 10171740
20:00+9sse2458100 0.0 101570
21 april, wed
wed2123:00+6s3970100 0.0 1014294
02:00+4s287831 0.0 1012185
05:00+2sse26863 0.0 1010137
08:00+6sse24711 0.0 1008297
11:00+11sse23512 0.0 1006888
14:00+14se223834 0.0 10042077
17:00+12ne2244100 0.0 10041189
20:00+7nne4757100 0.2 1005345
22 april, thu
thu2223:00+5nne51166100 0.0 1007697
02:00+4n51171100 0.0 1009863
05:00+3n51060100 0.0 1012910
08:00+3n4952100 0.0 10141012
11:00+7nne572899 0.0 10151718
14:00+10n462642 0.0 10162603
17:00+11nnw472697 0.0 10172742
20:00+7nnw410370 0.0 1019584